Tracking 22458 objects as of 3-Mar-2021
HD Live streaming from Space Station
objects crossing your sky now

SL-12 R/B(2)

Track SL-12 R/B(2) now!


NORAD ID: 33111
Int'l Code: 2008-033D
Perigee: 35,660.9 km
Apogee: 35,938.0 km
Inclination: 6.9 °
Period: 1,436.4 minutes
Semi major axis: 42170 km
RCS: 2.244 m2 (large)
Launch date: June 27, 2008
Source: Commonwealth of Independent States (former USSR) (CIS)
Launch site: TYURATAM MISSILE AND SPACE COMPLEX (TTMTR)

Note: This is a ROCKET BODY
aabbcc
Your satellite tracking list
Your tracking list is empty




NASA's NSSDC Master Catalog

Two Line Element Set (TLE):
1 33111U 08033D   21060.55663194 -.00000217  00000-0  00000+0 0  9991
2 33111   6.9203  53.0173 0032857 295.7375  98.9736  1.00251432 46418
Source of the keplerian elements: AFSPC